Probability
0 0 0 1 1 1 0 0 0 0 0 0 0 0 0 0 0 1 3 5 5 7 10 11 10 9 9 8 8 9 10 9 7 5 5 5 6 5 4 3 2 1 0 0 0 1 1 1 1
0 0 0 0 0 0 0 0 0 0 0 0 0 0 0 0 0 1 3 4 5 6 9 10 10 9 9 9 9 9 10 9 8 6 5 4 5 5 4 3 3 1 0 1 1 2 2 2 2
0 0 0 0 0 0 0 0 0 0 0 0 0 0 0 0 0 1 3 3 4 5 8 10 10 9 9 10 11 10 9 8 9 8 6 4 4 4 4 3 3 2 1 1 1 1 2 2 2
0 0 0 0 0 0 0 0 0 0 0 0 1 1 1 0 0 2 4 4 3 4 7 11 10 9 9 11 12 10 8 7 8 9 9 7 5 4 3 3 3 3 2 1 1 0 1 1 1
0 0 0 0 0 0 0 0 0 0 0 0 1 2 1 1 2 3 4 3 3 4 8 11 10 9 10 11 10 9 7 6 6 8 9 8 7 5 3 3 3 2 2 1 0 0 0 0 0
0 0 0 0 0 0 0 0 0 0 0 1 1 2 3 3 4 4 4 3 3 5 8 11 10 9 9 9 8 7 7 6 5 5 6 6 6 5 3 2 2 1 1 0 0 0 0 0 0
0 0 0 0 0 0 0 0 0 0 0 0 1 2 5 6 5 4 5 3 3 5 8 9 9 8 7 7 6 6 6 5 4 2 2 3 4 3 2 2 2 1 0 0 0 0 0 0 0
0 0 0 0 0 0 0 0 0 0 0 0 0 2 8 11 8 5 6 6 4 5 6 7 7 7 6 6 6 6 4 3 2 1 0 1 2 1 1 1 1 1 0 0 1 1 1 2 1
0 0 0 0 0 0 0 0 0 0 0 0 1 3 10 15 11 7 8 9 7 6 6 6 6 6 6 6 6 5 3 1 1 1 0 0 0 0 0 0 0 0 0 0 1 2 2 2 2
0 0 0 0 0 0 0 0 0 0 0 1 3 7 12 15 12 9 9 11 11 9 7 7 6 6 6 5 4 4 3 2 2 2 1 1 0 0 0 0 0 0 0 0 1 2 2 1 1
0 0 0 0 0 0 0 0 0 0 0 1 5 10 14 13 10 8 8 10 13 13 11 9 7 7 6 5 4 5 5 4 3 3 3 2 1 0 0 0 0 0 0 0 0 1 1 1 1
0 0 0 0 0 0 0 0 0 0 1 2 5 9 12 11 8 6 6 8 12 15 14 11 10 10 9 8 6 6 6 6 5 5 5 3 1 0 0 0 0 0 0 0 0 1 0 0 1
0 0 0 0 0 0 0 0 0 0 1 2 3 6 9 10 8 6 6 9 13 17 18 15 13 14 13 11 9 7 7 7 6 5 4 3 2 1 1 1 1 0 1 1 0 0 0 0 0
0 0 0 1 0 0 1 1 1 1 2 2 3 4 7 10 9 8 10 14 17 21 22 18 15 16 14 12 10 8 6 6 5 4 3 3 3 2 1 2 2 1 1 1 0 0 0 0 0
0 0 1 2 1 1 1 2 2 3 3 3 4 6 7 8 9 10 15 19 21 23 24 20 15 14 13 11 9 7 5 4 4 4 4 4 4 4 3 3 3 3 2 1 0 0 0 1 1
0 0 1 2 2 1 1 2 2 3 4 4 5 6 7 7 8 10 17 22 23 24 26 22 15 12 12 11 9 7 5 5 5 6 6 5 5 4 4 3 4 4 3 2 1 1 1 3 3
0 0 0 1 1 0 0 1 1 3 4 4 5 6 7 7 7 11 18 23 25 25 27 24 17 14 13 12 11 10 7 6 6 6 6 5 4 4 4 4 5 6 5 3 2 2 3 4 5
0 0 0 0 0 0 0 0 2 3 5 6 6 5 6 7 7 11 19 24 26 28 29 27 23 20 18 15 13 10 8 6 4 4 4 4 3 4 5 6 6 5 5 4 4 4 4 5 5
0 0 0 0 0 0 0 0 1 4 6 7 7 6 6 6 7 11 18 24 27 29 29 28 27 25 21 16 13 10 7 5 4 4 4 3 2 3 4 5 5 4 3 4 4 4 5 6 6
0 0 0 0 0 0 0 0 1 5 7 8 8 7 8 9 9 12 18 22 26 28 27 27 28 25 21 18 14 10 8 6 5 5 5 3 2 2 2 2 2 2 1 1 2 3 5 7 7
0 0 0 0 0 0 0 0 2 6 8 8 8 9 11 11 12 15 19 22 25 26 25 27 27 25 23 20 15 11 9 6 5 6 5 4 3 3 2 2 2 2 1 1 1 2 4 6 7
0 0 0 0 0 0 0 1 4 8 8 8 8 9 11 12 13 17 20 22 23 24 25 26 26 26 26 24 19 15 10 6 6 6 6 5 5 4 5 5 6 5 3 3 3 4 5 6 7
0 0 0 0 0 0 0 1 5 9 10 9 10 10 11 12 13 17 19 20 21 22 25 26 25 25 27 26 24 19 12 7 7 7 6 6 6 6 6 7 7 6 4 4 5 7 8 9 9
0 0 0 0 0 0 0 1 5 9 10 10 12 12 13 12 12 15 18 20 21 22 24 25 25 25 26 27 25 21 14 10 8 6 5 6 6 8 8 7 7 6 4 4 6 9 11 11 12
0 0 0 0 0 0 0 1 4 7 7 9 12 13 12 12 11 13 17 20 23 24 24 23 24 25 25 25 23 20 16 13 10 7 5 6 7 8 9 9 8 7 5 4 6 10 12 12 12
0 0 0 0 0 0 0 2 4 6 7 10 12 12 11 10 9 11 17 22 24 25 25 22 23 25 23 21 19 19 17 15 13 10 8 9 9 9 10 11 10 8 6 5 6 10 11 11 11
0 0 0 0 0 0 0 2 4 6 8 11 13 12 10 9 8 12 18 23 24 25 25 23 23 24 22 17 15 16 17 15 13 12 12 12 12 11 12 12 11 10 8 7 8 9 10 9 9
0 0 0 0 0 0 0 2 4 5 7 10 11 11 9 8 9 13 19 23 25 25 25 24 23 23 20 15 13 15 16 14 12 12 12 13 14 13 12 12 12 12 10 9 9 8 8 8 8
0 0 0 0 0 0 0 1 3 4 6 7 9 10 10 10 10 14 20 24 26 26 26 26 25 24 23 20 17 17 16 13 11 10 10 11 13 13 13 12 13 12 10 9 8 7 6 7 7
0 0 0 0 0 0 0 1 3 4 6 6 7 10 12 11 12 15 21 25 26 27 28 28 28 27 26 26 23 20 16 12 10 9 8 10 12 13 13 13 13 12 10 8 7 7 6 6 6
Wind_Speed
10 9 7 6 8 2 6 7 5 5 5 5 4 3 5 7 7 7 7 9 9 11 12 12 9 9 8 8 8 8 8 8 8 8 8 7 7 7 7 7 7 7 8 8 8 8 8 8 8
7 6 7 8 5 3 7 6 6 7 5 4 3 3 4 7 7 8 8 9 10 11 12 11 11 9 8 8 8 9 9 9 8 8 8 7 7 6 7 7 7 7 7 8 8 7 7 8 7
7 7 7 5 0 3 6 6 5 5 4 2 3 3 4 6 6 6 9 11 11 11 11 12 10 9 9 8 9 10 9 8 8 8 8 7 7 6 7 7 7 7 7 7 7 7 7 7 7
6 7 7 4 3 5 5 5 4 3 4 2 3 5 6 6 4 7 12 12 11 11 11 13 9 10 9 9 9 9 9 8 8 8 8 7 7 7 6 6 6 7 7 7 7 6 6 6 6
7 7 5 3 3 4 4 4 2 1 3 4 3 6 8 6 7 11 12 11 11 10 10 13 10 10 9 9 9 9 8 8 7 7 7 7 7 6 6 6 6 6 7 7 6 6 6 6 6
6 6 4 3 3 3 3 2 1 1 3 4 3 6 7 7 9 11 12 10 10 10 10 12 11 10 9 9 8 8 8 7 7 7 7 6 6 6 6 5 5 6 6 6 6 5 5 5 5
7 4 3 2 1 2 3 2 2 2 3 3 2 5 8 9 10 11 11 10 10 10 10 10 11 11 10 9 8 7 7 6 6 6 6 6 6 5 5 5 5 5 5 6 5 5 5 5 5
6 5 5 4 2 1 3 1 2 2 3 4 1 2 7 12 12 11 11 10 10 9 9 9 9 9 9 9 9 7 6 6 6 6 6 5 5 5 5 5 6 5 5 5 5 5 5 5 4
7 8 5 3 3 0 1 0 2 1 3 3 2 4 8 16 15 13 11 10 10 9 8 8 8 8 7 7 9 8 8 7 6 6 6 5 5 5 5 6 6 5 5 5 5 4 4 4 5
7 7 5 3 4 3 2 2 1 2 3 4 5 8 13 15 14 14 13 12 11 10 9 8 7 7 7 6 6 5 5 6 4 3 4 3 2 2 2 8 6 5 4 5 5 4 5 5 3
7 7 4 4 4 5 5 3 3 3 2 2 5 9 13 14 13 12 12 11 10 10 9 8 7 7 6 5 4 3 3 3 3 3 2 1 1 2 2 3 5 5 5 4 5 5 2 2 2
7 5 5 5 4 5 5 4 3 3 3 1 3 8 12 14 13 12 11 11 10 10 9 8 8 7 6 5 4 3 3 2 2 3 2 2 1 1 1 1 1 2 2 2 2 1 2 2 1
9 6 5 6 6 6 5 5 5 3 2 1 5 8 11 11 11 10 9 9 9 9 9 8 7 7 6 4 3 3 3 2 2 2 2 1 2 1 2 1 1 1 1 2 1 2 2 1 1
5 6 6 7 6 6 6 6 6 3 2 4 7 8 9 9 10 10 10 10 10 9 9 8 7 7 6 5 4 3 3 2 2 2 2 1 1 1 1 2 1 1 1 1 0 1 1 1 1
6 8 8 7 7 6 6 8 7 4 4 5 6 6 7 8 8 9 9 9 10 9 9 9 8 7 7 6 5 4 3 3 2 2 2 2 1 1 1 1 2 1 1 2 1 2 1 2 2
9 11 10 6 6 6 9 8 4 5 6 6 5 6 6 7 8 8 8 8 8 9 9 8 7 8 7 5 4 3 3 3 2 2 2 2 1 1 2 1 1 1 1 2 1 2 1 2 1
11 11 10 6 5 6 10 7 3 4 6 5 6 6 6 7 7 7 8 8 8 8 9 9 8 8 8 7 5 4 3 2 2 2 2 2 2 2 2 1 1 2 2 2 2 2 1 2 1
10 11 9 8 4 7 9 7 4 4 6 6 6 6 6 6 6 7 8 8 8 8 8 8 8 7 7 6 4 3 3 2 2 2 1 2 2 2 2 2 1 2 2 2 1 1 1 1 1
10 11 10 7 4 7 8 7 6 5 6 6 6 6 6 6 6 6 7 8 8 8 9 9 8 8 6 5 5 4 4 3 2 2 2 2 1 2 2 2 2 2 2 2 2 2 3 3 2
12 13 11 7 5 7 8 8 7 6 7 6 6 6 6 6 7 6 7 8 9 8 9 9 9 8 8 5 4 3 3 3 2 1 2 2 2 2 2 1 2 2 2 2 2 2 2 2 2
14 14 12 9 7 9 9 11 10 8 7 5 5 6 6 7 7 8 8 8 9 9 9 8 9 9 8 7 5 4 3 3 3 3 2 2 2 2 1 1 1 1 2 2 2 2 3 3 2
13 12 11 11 11 10 10 10 8 8 7 6 5 5 5 6 7 7 8 8 9 9 8 8 8 8 8 8 7 7 5 4 3 2 2 3 3 2 2 1 1 1 1 1 2 2 2 3 3
11 8 11 12 13 13 12 13 8 9 9 6 5 4 5 5 7 7 8 8 8 8 8 8 8 8 8 7 7 7 5 4 3 3 3 3 2 2 2 2 2 2 1 1 1 1 2 3 3
7 8 9 12 12 15 14 13 9 6 7 6 5 4 4 5 6 7 7 7 7 7 7 8 8 8 8 8 8 7 5 4 4 4 3 3 2 2 2 2 2 2 2 2 2 2 2 2 3
11 10 9 11 12 12 9 11 6 2 3 4 4 4 4 5 5 7 7 8 7 8 7 7 8 8 8 8 7 7 6 6 5 4 4 3 2 2 2 2 2 2 2 2 2 2 2 3 3
12 14 12 10 10 8 9 10 3 2 2 3 3 3 3 4 5 6 7 7 7 7 7 7 8 8 8 8 7 6 5 4 3 3 3 3 2 2 2 3 3 2 2 2 3 3 3 3 3
11 13 12 13 13 12 9 7 5 3 3 4 4 4 4 4 4 5 6 7 7 7 7 7 7 8 8 8 7 6 5 4 3 3 3 2 2 2 2 3 3 3 3 3 3 2 3 3 3
10 10 9 12 12 13 11 11 7 7 7 6 5 4 4 4 3 4 5 6 6 6 7 7 7 7 7 7 6 4 5 4 3 3 3 2 2 2 3 3 3 3 3 4 3 3 2 3 3
8 10 10 10 11 11 11 5 0 4 6 7 6 5 3 4 3 3 5 6 6 6 6 6 7 7 7 6 5 4 4 4 4 4 3 3 3 3 4 4 4 4 4 4 4 4 3 4 3
8 9 10 10 10 11 11 3 2 0 3 4 3 3 3 2 3 4 5 6 6 6 6 6 6 6 7 6 6 5 5 4 4 4 4 3 4 4 4 4 5 5 5 4 5 5 4 5 5
Wind_Direction
182 192 218 235 234 176 81 72 55 60 64 58 50 33 37 29 23 59 93 123 127 131 130 137 130 131 129 126 124 122 118 117 116 116 113 112 111 109 109 112 115 116 116 116 115 118 119 117 119
189 205 231 240 247 116 87 67 56 51 61 91 98 86 77 68 56 92 120 126 135 132 136 134 128 131 129 127 129 127 122 118 116 115 113 111 111 109 108 107 109 111 111 112 112 112 114 115 116
206 233 258 247 168 67 79 60 48 65 99 134 111 71 50 67 86 105 118 138 140 136 133 122 133 132 129 125 120 124 121 118 115 113 110 107 104 102 104 104 105 109 109 108 108 109 108 111 114
229 227 237 240 118 69 48 44 37 92 117 115 124 108 88 56 74 106 129 144 140 136 132 126 137 133 132 129 124 123 121 116 112 110 106 102 99 97 99 103 106 107 110 108 106 102 102 106 109
242 254 228 181 123 84 53 34 28 65 104 111 126 112 100 81 92 120 137 144 140 136 132 130 136 135 134 132 128 126 124 119 114 110 105 100 94 91 92 99 106 107 109 107 107 105 107 106 106
243 245 234 178 133 104 69 29 20 76 104 117 128 124 101 108 122 132 139 144 140 137 134 132 139 138 137 135 132 128 124 122 118 113 109 100 93 89 89 93 100 104 108 107 106 105 113 109 106
269 262 251 228 167 132 61 36 25 40 96 91 107 126 119 127 130 137 141 142 140 141 138 143 148 147 145 137 131 130 128 126 121 116 113 106 101 100 97 96 99 105 109 107 105 111 114 109 104
275 258 232 225 227 117 75 46 42 7 69 86 129 126 130 137 142 144 144 143 144 145 144 146 150 147 153 146 138 139 137 132 127 125 123 122 128 134 131 135 111 109 109 111 112 112 116 114 109
252 245 234 241 261 235 96 324 57 40 110 113 72 52 103 136 148 151 150 152 151 152 152 153 151 151 155 147 142 155 154 148 157 150 145 171 164 150 153 100 105 115 113 113 114 120 131 146 144
239 245 251 293 297 295 279 293 315 201 169 149 124 105 124 146 157 161 162 163 162 163 163 160 157 155 155 148 149 164 165 154 173 147 157 170 137 136 118 109 121 129 138 145 135 148 176 201 155
236 253 266 262 277 284 271 276 283 260 237 182 160 145 150 160 167 171 170 168 165 165 165 165 162 160 159 153 156 162 159 154 167 152 160 146 148 140 147 142 151 159 169 166 152 178 162 117 82
233 242 259 266 270 263 264 271 275 279 304 352 162 159 163 171 174 177 174 169 167 166 169 169 166 167 169 161 161 167 168 162 163 151 181 163 161 144 140 158 152 161 158 151 165 129 100 88 99
227 234 237 249 255 255 257 255 268 268 274 186 158 167 176 179 176 176 173 167 168 168 168 168 171 168 167 167 180 171 170 169 153 158 172 197 184 156 149 148 194 211 158 166 171 134 115 112 104
238 243 242 240 235 227 235 237 237 231 196 163 162 172 177 180 176 170 172 172 172 170 169 165 172 167 168 170 177 174 173 163 171 166 149 204 182 151 176 180 183 197 188 126 195 134 145 115 74
235 241 233 229 225 222 232 230 226 203 190 180 174 172 172 173 171 174 175 177 175 172 170 169 171 167 171 172 175 173 173 169 174 154 154 179 181 153 202 187 192 177 181 177 194 167 162 141 129
223 233 231 207 219 214 235 241 179 176 192 192 188 179 177 175 178 177 176 178 176 173 170 172 170 168 169 171 177 171 170 164 165 156 150 155 150 179 219 198 179 169 203 190 183 201 162 131 144
220 232 236 210 210 223 235 249 182 193 204 204 197 190 185 179 183 181 179 178 175 174 171 171 172 171 171 171 170 168 160 164 162 156 154 143 168 199 221 208 143 205 202 204 215 161 178 151 146
230 238 238 236 206 228 238 244 215 218 216 212 205 199 194 189 189 183 180 177 173 172 171 171 170 169 168 166 165 167 159 164 164 154 140 148 178 193 233 193 191 221 206 201 194 163 171 174 180
259 255 248 245 232 242 244 243 230 224 223 220 212 207 200 193 187 176 176 175 170 169 172 172 171 165 168 167 173 173 173 174 168 156 135 164 193 190 228 232 185 230 205 208 205 202 181 193 187
243 245 245 241 231 251 246 245 234 225 225 227 227 217 207 193 178 173 177 175 171 171 175 173 171 168 174 170 173 173 166 171 153 143 136 182 193 204 203 233 227 212 200 193 208 230 227 210 215
237 244 247 248 239 235 242 239 224 215 215 220 226 225 211 200 189 178 175 176 173 173 173 173 173 171 175 165 163 154 157 168 163 171 173 191 198 196 230 195 239 234 223 178 196 224 231 228 221
240 240 250 246 245 240 234 251 221 212 212 215 217 215 207 199 193 183 178 178 177 175 171 172 174 171 171 170 170 169 175 176 178 183 177 182 192 196 186 195 199 217 220 188 214 208 237 240 235
252 245 243 245 249 254 240 252 230 207 220 214 214 215 207 195 185 179 177 175 173 171 169 169 170 171 173 178 174 179 182 180 172 173 171 197 190 202 193 190 192 199 207 197 240 224 248 243 253
234 230 234 239 243 244 239 247 244 216 226 219 209 200 192 187 180 173 167 164 166 165 167 166 167 171 173 178 180 186 183 180 175 183 185 198 187 191 189 191 191 200 198 200 217 221 224 255 268
219 225 226 225 226 239 222 237 245 213 225 221 211 193 178 173 175 173 169 165 168 167 165 167 168 171 174 178 183 185 184 185 187 198 195 207 196 195 193 201 204 207 214 222 223 222 237 233 243
223 233 244 251 249 242 220 235 216 198 193 195 187 190 180 174 174 174 167 167 169 170 165 168 171 172 173 176 180 180 183 192 191 201 214 207 213 205 194 211 212 212 212 230 227 223 223 225 232
227 233 253 266 265 263 238 224 201 185 197 192 188 188 182 178 170 166 161 166 167 168 170 171 172 171 174 175 177 176 181 191 189 189 211 210 213 210 203 211 211 216 214 222 228 229 229 233 235
246 243 241 245 252 253 243 234 228 205 212 203 199 199 182 171 166 165 159 159 161 166 170 170 174 171 171 175 180 172 177 185 196 203 194 215 226 223 218 214 215 218 216 217 225 230 226 237 244
220 224 240 249 254 260 258 240 222 204 197 201 201 197 188 179 167 166 161 157 161 163 164 169 171 171 171 172 171 171 176 188 199 207 210 211 223 221 221 220 220 222 219 217 225 240 233 240 244
236 237 234 242 246 251 266 251 64 126 179 193 187 172 170 178 166 165 157 152 153 160 162 166 168 172 172 171 174 174 179 192 199 204 214 216 223 228 226 227 227 228 226 222 227 237 236 241 246